sat.trackr.live / text

‹ back to catalog

STARLINK-4610

NORAD 53610 · 2022-104Y

PAYLOAD ACTIVE UNKNOWN

§ Identity

Operator
Country
US
Launch date
2022-08-28
Launch site
AFETR
Launch vehicle
Mass (kg)
RCS (m²)

Purposes: comms

External: N2YO · Heavens-Above · Gunter

§ Orbital elements

Epoch: 2026-09-20T21:47:00.870144Z

Period
94.01 min
Inclination
53.1599°
Eccentricity
0.0001143
Mean motion
15.31701123 rev/d
Perigee alt
470.0 km
Apogee alt
471.5 km
Semi-major
6,848.9 km
B*
1.2774e-5
RAAN
70.9758°
Arg perigee
91.0006°
Mean anomaly
269.1126°
Rev number
22,519

§ Raw data

STARLINK-46101 53610U 22104Y   26263.90764896  .00000031  00000+0  12774-4 0  99902 53610  53.1599  70.9758 0001143  91.0006 269.1126 15.31701123225190

JSON: /api/v1/satellites/53610 · /tle

For live sub-satellite position, see the globe view (requires WebGL).

§ Visibility from observer

Set your observer location to see the next 7 days of passes ≥ 10°. The values pass through the URL so the page stays shareable.

No JS? Fill the form by hand. The geolocation button needs JavaScript.